Location: Unspecified
(38.9820°N, 0.0000°E)
Time: 02:58:48
(UTC+00:00)

Tiangong 2 - Pass Details

Date: 28 May 2019
Orbit: 376 x 388 km, 42.8° (Epoch: 15 June)

Event Time Altitude Azimuth Distance (km) Brightness Sun altitude
Rises 20:58:01 0° 290° (WNW) 2,240 6.1 -16.4°
Reaches altitude 10° 21:00:05 10° 290° (WNW) 1,385 4.8 -16.7°
Maximum altitude 21:03:12 89° 203° (SSW) 379 0.9 -17.1°
Enters shadow 21:03:44 58° 113° (ESE) 444 1.0 -17.1°
